STARLINK-11305 [DTC] (61247 NORAD) Tracking and Keplerian Element Data

This shows tracking and keplerian element data for the satellite.

Feedback or suggestion? Click here.




ElementValue
Catalog61247
NameSTARLINK-11305 [DTC]
Epoch Orbit280
Epoch Day286.86389442
Epoch Year2024
RAAN65.6263
Inclination53.1557
Eccentricity4.71E-05
Argument of Perigee89.1045
Mean Anonmoly271.003
Mean Motion15.76844477
Decay Rate0.00053751
L11 61247U 24175E 24286.86389442 .00053751 00000+0 32865-3 0 9992
L22 61247 53.1557 65.6263 0000471 89.1045 271.0030 15.76844477 2801



Live tracking and technical data element details for STARLINK-11305 [DTC] (NORAD 61247). STARLINK-11305 [DTC] can be tracked NOW for your location showing map with azimuth and elevation plus other details from your city location.







IsCatalogInMostPopularTable: catalog: 61247, numindb: 27
Update: records affected: 1



GetName: 61247 STARLINK-11305 [DTC]

Hit Count: updated at: Fri, 06 Dec 2024 11:10:54 GMT